[[{"header":{"parameterUnit":"m.s-1","parameterCategory":1,"la1":30.2991,"la2":30.254,"lo1":-89.0895,"lo2":-89.0444,"dy":0.0017,"dx":0.0017,"nx":28,"ny":28,"refTime":"2024-12-19T03:00:00:Z","depth":0,"parameterNumber":2,"parameterNumberName":"U-component_of_WINDS"},"data":[0,0,0,0,0,0,0,0,0,0,0,0,0,0,0,0,0,0,0,0,0,0,0,0,0,0,0,0,0,0,0,0,0,0,0,0,0,0,0,0,0,0,0,0,0,0,0,0,0,0,0,0,0,0,0,0,0,0,1.2062,1.2062,0,1.2046,1.2046,1.2045,1.2043,1.2043,1.2043,1.2043,1.2027,1.2026,1.2026,0,0,0,0,0,0,0,0,0,0,0,0,0,1.2091,1.209,1.2062,1.2062,1.2061,1.2046,1.2046,1.2045,1.2043,1.2043,1.2043,1.2043,1.2027,1.2026,1.2025,0,0,0,0,0,0,0,0,0,0,0,0,0,1.2077,1.209,1.2062,1.2058,1.2058,1.2046,1.2046,1.2045,1.2043,1.2043,1.2043,1.2043,1.2027,1.2026,1.2025,1.2016,0,0,1.2023,1.2022,0,0,0,0,0,0,0,0,1.2078,1.2076,1.2059,1.2058,1.2058,1.2047,1.205,1.2036,1.2043,1.2048,1.2043,1.2043,1.2033,1.2032,1.2028,1.2015,1.2015,1.2023,1.2022,1.2022,1.2022,0,0,0,0,0,0,0,1.2079,1.2076,1.2055,1.2059,1.2058,1.2058,1.2056,1.2047,1.204,1.2048,1.2048,1.2046,1.2033,1.2029,1.2028,1.2014,1.2023,1.2022,1.2021,1.2021,1.1994,1.1994,0,0,0,0,0,0,1.208,1.2077,1.2056,1.2055,1.2068,1.2057,1.2055,1.205,1.204,1.2039,1.2046,1.2046,1.203,1.2029,1.2027,1.2016,1.2022,1.2021,1.2021,1.1995,1.1994,1.1994,0,0,0,0,0,0,1.2081,1.2078,1.2057,1.2066,1.2063,1.2056,1.2051,1.205,1.2046,1.2038,1.2037,1.2043,1.2031,1.2028,1.2019,1.2016,1.2021,1.202,1.1995,1.1995,1.1994,1.1994,0,0,0,0,0,0,1.2082,1.2078,1.2074,1.2066,1.2063,1.2048,1.205,1.2049,1.2044,1.2044,1.2035,1.2034,1.2031,1.2021,1.2018,1.2015,1.2019,1.1995,1.1995,1.1994,1.1994,1.1994,1.1993,0,0,0,0,0,1.2083,1.2075,1.2074,1.2072,1.2058,1.2048,1.2046,1.2042,1.2044,1.204,1.2036,1.2034,1.2017,1.202,1.2017,1.2013,1.1995,1.1995,1.1994,1.1995,1.1994,1.1993,0,0,0,0,0,0,1.2082,1.2073,1.2073,1.2062,1.2056,1.2048,1.2043,1.2042,1.2035,1.2035,1.2031,1.2029,1.202,1.2016,1.2019,1.2004,1.2006,1.2005,1.2007,1.2007,1.2006,1.2007,1.2019,0,0,0,0,0,1.2081,1.2074,1.2067,1.2058,1.2055,1.2049,1.2045,1.2043,1.2036,1.2034,1.2028,1.2022,1.2015,1.2011,1.2004,1.1994,1.1993,1.199,1.199,1.199,1.1989,1.1984,1.1983,1.1993,1.1993,1.1993,0,0,1.2078,1.2072,1.2068,1.2058,1.2053,1.2046,1.2047,1.2039,1.2035,1.2032,1.2023,1.202,1.2013,1.2003,1.1999,1.2,1.1986,1.1989,1.1989,1.1988,1.1984,1.1983,1.1982,1.1992,1.1992,1.1993,0,0,1.2069,1.2064,1.2056,1.2052,1.2045,1.2042,1.204,1.2032,1.203,1.2021,1.202,1.2014,1.2002,1.1997,1.1993,1.1985,1.1984,1.1983,1.198,1.1976,1.1975,1.1975,1.1972,1.1971,1.1982,1.1982,1.1982,0,1.2066,1.2056,1.2053,1.2046,1.2041,1.204,1.2033,1.2029,1.2019,1.2017,1.2018,1.2004,1.1999,1.1989,1.1987,1.1984,1.1983,1.1984,1.1976,1.1975,1.1974,1.1972,1.1971,1.1982,1.1982,1.1982,1.1982,0,1.2053,1.2046,1.2041,1.2033,1.2028,1.2021,1.2017,1.2013,1.2012,1.2009,1.2,1.1995,1.1987,1.1985,1.1983,1.1975,1.1976,1.1977,1.1978,1.1973,1.1971,1.197,1.1982,1.1982,1.1982,1.1982,0,0,1.2041,1.2033,1.2032,1.2029,1.2022,1.2016,1.201,1.2003,1.2,1.1994,1.1989,1.198,1.1981,1.1976,1.1974,1.1971,1.1965,1.1972,1.1971,1.1971,1.1957,1.1957,1.1956,1.1965,1.1965,1.1965,1.1958,0,1.2032,1.202,1.2018,1.2008,1.2002,1.2001,1.1996,1.1991,1.1989,1.1984,1.1981,1.1975,1.1976,1.1974,1.197,1.1967,1.1963,1.1967,1.196,1.196,1.1962,1.1954,1.1954,1.1947,1.1957,1.1957,1.1957,0,1.2018,1.2013,1.2003,1.1998,1.1995,1.199,1.1985,1.198,1.1975,1.1974,1.197,1.1969,1.1963,1.1966,1.1958,1.1961,1.1958,1.1956,1.1956,1.1955,1.1958,1.1953,1.1945,1.1944,1.1955,1.1955,1.1955,0,1.2012,1.2002,1.1995,1.1992,1.1986,1.1983,1.1981,1.1976,1.1973,1.1968,1.1966,1.1961,1.1958,1.1954,1.1952,1.1954,1.1945,1.1947,1.1943,1.1943,1.1941,1.1941,1.1932,1.1939,1.1939,1.1939,1.1939,0,1.2001,1.1994,1.1992,1.1987,1.1981,1.1979,1.1972,1.197,1.1967,1.1962,1.1962,1.1957,1.1955,1.1951,1.1949,1.1943,1.1942,1.1941,1.194,1.194,1.1941,1.1938,1.1938,1.1939,1.1939,1.1939,1.1939,0,1.1991,1.199,1.1982,1.1978,1.1977,1.1972,1.1968,1.1964,1.1963,1.1957,1.1956,1.1953,1.1948,1.1946,1.1939,1.1938,1.1932,1.1932,1.1933,1.1933,1.193,1.193,1.1919,1.1918,1.1926,1.1926,1.1926,0,1.1984,1.1979,1.1975,1.1973,1.197,1.1965,1.1962,1.1961,1.1958,1.1954,1.195,1.1946,1.1942,1.1934,1.1931,1.1927,1.1927,1.1923,1.1926,1.1927,1.1927,1.1927,1.1927,1.1922,1.1922,1.1922,1.1922,0,1.1972,1.1972,1.1967,1.1963,1.196,1.1956,1.1953,1.1951,1.1949,1.1946,1.1941,1.1938,1.1933,1.1928,1.1924,1.1922,1.1922,1.1922,1.1921,1.1921,1.1922,1.1921,1.1932,1.1922,1.1922,1.1922,1.1922,1.1922,1.1964,1.196,1.1957,1.1952,1.195,1.1947,1.1944,1.1942,1.1938,1.1934,1.1934,1.1929,1.1926,1.1921,1.1918,1.1915,1.1916,1.1914,1.1914,1.1913,1.1913,1.1923,1.1914,1.1914,1.1914,1.1914,1.1914,0,1.1952,1.195,1.1946,1.1942,1.1939,1.194,1.1937,1.1934,1.193,1.1928,1.1924,1.192,1.1916,1.1914,1.191,1.1908,1.1908,1.1907,1.1907,1.1907,1.1913,1.1914,1.1907,1.1907,1.1907,1.1907,1.1907,1.1907,1.1945,1.1939,1.1939,1.1932,1.1931,1.1926,1.1924,1.1922,1.192,1.1915,1.1912,1.1911,1.1909,1.1906,1.1903,1.1902,1.1901,1.19,1.19,1.1905,1.1906,1.1907,1.1908,1.19,1.19,1.1894,1.1894,1.1894]},{"header":{"parameterUnit":"m.s-1","parameterCategory":1,"la1":30.2991,"la2":30.254,"lo1":-89.0895,"lo2":-89.0444,"dy":0.0017,"dx":0.0017,"nx":28,"ny":28,"refTime":"2024-12-19T03:00:00:Z","depth":0,"parameterNumber":3,"parameterNumberName":"V-component_of_WINDS"},"data":[0,0,0,0,0,0,0,0,0,0,0,0,0,0,0,0,0,0,0,0,0,0,0,0,0,0,0,0,0,0,0,0,0,0,0,0,0,0,0,0,0,0,0,0,0,0,0,0,0,0,0,0,0,0,0,0,0,0,-2.6425,-2.6426,0,-2.6558,-2.656,-2.6561,-2.6595,-2.6594,-2.6593,-2.6592,-2.6726,-2.673,-2.6735,0,0,0,0,0,0,0,0,0,0,0,0,0,-2.6199,-2.6203,-2.6425,-2.6426,-2.6428,-2.6558,-2.656,-2.6561,-2.6595,-2.6594,-2.6593,-2.6592,-2.6725,-2.673,-2.6735,0,0,0,0,0,0,0,0,0,0,0,0,0,-2.6311,-2.6204,-2.6424,-2.646,-2.6465,-2.6557,-2.656,-2.6562,-2.6595,-2.6594,-2.6592,-2.6591,-2.6723,-2.6729,-2.6736,-2.6801,0,0,-2.6756,-2.6759,0,0,0,0,0,0,0,0,-2.6304,-2.6319,-2.6453,-2.6458,-2.6463,-2.6559,-2.6529,-2.6642,-2.6595,-2.6545,-2.6592,-2.6591,-2.6671,-2.6682,-2.671,-2.6808,-2.6814,-2.6756,-2.676,-2.6763,-2.6765,0,0,0,0,0,0,0,-2.6296,-2.6313,-2.6477,-2.6455,-2.6461,-2.647,-2.6484,-2.6551,-2.6614,-2.655,-2.6552,-2.6568,-2.6674,-2.6703,-2.6713,-2.6816,-2.6756,-2.6762,-2.6766,-2.6769,-2.6977,-2.6978,0,0,0,0,0,0,-2.6283,-2.6307,-2.6473,-2.6481,-2.6379,-2.6475,-2.6491,-2.6529,-2.6613,-2.6625,-2.6569,-2.6569,-2.6693,-2.6705,-2.6718,-2.6802,-2.6763,-2.6769,-2.6773,-2.6975,-2.6977,-2.6979,0,0,0,0,0,0,-2.6278,-2.6297,-2.6468,-2.6395,-2.6417,-2.648,-2.6523,-2.6532,-2.6562,-2.6628,-2.6639,-2.6588,-2.6692,-2.6709,-2.6781,-2.6807,-2.6772,-2.6778,-2.6973,-2.6976,-2.6978,-2.6969,0,0,0,0,0,0,-2.6271,-2.6295,-2.6321,-2.6395,-2.6421,-2.6529,-2.6524,-2.6536,-2.6574,-2.6575,-2.6648,-2.6659,-2.6693,-2.6771,-2.6788,-2.6815,-2.6783,-2.6971,-2.6974,-2.6977,-2.6967,-2.6971,-2.6974,0,0,0,0,0,-2.6263,-2.6312,-2.6322,-2.6342,-2.6454,-2.653,-2.6545,-2.6583,-2.6575,-2.6602,-2.6644,-2.6657,-2.6801,-2.6778,-2.6797,-2.6827,-2.697,-2.6973,-2.6977,-2.6966,-2.697,-2.6974,0,0,0,0,0,0,-2.6237,-2.6322,-2.6334,-2.6409,-2.6462,-2.6536,-2.657,-2.6586,-2.6642,-2.6641,-2.6685,-2.6702,-2.6772,-2.6807,-2.6779,-2.6896,-2.6886,-2.6893,-2.6871,-2.6875,-2.6878,-2.6869,-2.6789,0,0,0,0,0,-2.624,-2.6295,-2.6366,-2.6425,-2.6452,-2.6506,-2.6541,-2.6566,-2.6623,-2.6645,-2.6693,-2.6747,-2.6805,-2.6842,-2.6899,-2.6973,-2.699,-2.7003,-2.7006,-2.7008,-2.7014,-2.7058,-2.7065,-2.6991,-2.699,-2.699,0,0,-2.6247,-2.63,-2.6332,-2.6422,-2.6466,-2.6522,-2.6525,-2.6583,-2.6626,-2.6654,-2.6726,-2.6763,-2.6826,-2.69,-2.6935,-2.6932,-2.7039,-2.7013,-2.7014,-2.7019,-2.7062,-2.7069,-2.7075,-2.6993,-2.6993,-2.6992,0,0,-2.6288,-2.6334,-2.6389,-2.6434,-2.6502,-2.6538,-2.6551,-2.6623,-2.6649,-2.6723,-2.6746,-2.6796,-2.6895,-2.694,-2.6975,-2.7037,-2.7051,-2.7054,-2.7071,-2.7112,-2.7118,-2.7124,-2.7147,-2.7154,-2.7059,-2.7059,-2.7059,0,-2.6287,-2.6373,-2.6415,-2.6473,-2.6513,-2.6542,-2.6599,-2.664,-2.6723,-2.6749,-2.6744,-2.687,-2.6915,-2.7001,-2.7016,-2.7044,-2.7061,-2.7045,-2.7114,-2.712,-2.7126,-2.7148,-2.7156,-2.7059,-2.7059,-2.7059,-2.7059,0,-2.637,-2.6429,-2.6466,-2.6547,-2.659,-2.6647,-2.6697,-2.6736,-2.6758,-2.6795,-2.687,-2.6926,-2.6995,-2.7017,-2.7038,-2.7107,-2.7103,-2.7105,-2.7096,-2.7132,-2.7154,-2.7163,-2.7059,-2.7059,-2.7059,-2.7059,0,0,-2.6397,-2.6502,-2.6514,-2.6552,-2.6631,-2.6677,-2.6736,-2.6806,-2.6839,-2.6895,-2.6946,-2.703,-2.7034,-2.7075,-2.7102,-2.7138,-2.7185,-2.7137,-2.7139,-2.7145,-2.7265,-2.7263,-2.7272,-2.7195,-2.7197,-2.7198,-2.726,0,-2.6448,-2.6555,-2.6595,-2.6683,-2.6739,-2.677,-2.6822,-2.6875,-2.6912,-2.6965,-2.7005,-2.7065,-2.7065,-2.709,-2.7128,-2.7171,-2.721,-2.7167,-2.7243,-2.7246,-2.7227,-2.7284,-2.7281,-2.7337,-2.7269,-2.7271,-2.7272,0,-2.6521,-2.6581,-2.6675,-2.6748,-2.6774,-2.6819,-2.6887,-2.6937,-2.7,-2.7024,-2.7071,-2.7096,-2.7159,-2.7146,-2.7235,-2.7205,-2.7239,-2.7265,-2.7268,-2.7277,-2.7261,-2.7294,-2.7355,-2.7364,-2.7285,-2.7284,-2.7283,0,-2.6533,-2.6636,-2.6706,-2.6738,-2.6825,-2.6857,-2.6894,-2.6956,-2.6995,-2.7055,-2.7081,-2.7147,-2.7182,-2.7233,-2.7275,-2.7261,-2.7361,-2.735,-2.7383,-2.7382,-2.7402,-2.74,-2.747,-2.7423,-2.7423,-2.7423,-2.7422,0,-2.6586,-2.6642,-2.6713,-2.6756,-2.682,-2.6867,-2.6929,-2.6969,-2.7024,-2.7075,-2.7105,-2.7153,-2.7206,-2.7261,-2.7294,-2.7364,-2.7379,-2.7401,-2.7409,-2.7398,-2.7396,-2.7421,-2.7418,-2.7425,-2.7424,-2.7424,-2.7424,0,-2.6609,-2.6658,-2.6737,-2.6814,-2.6835,-2.6879,-2.6946,-2.6989,-2.7028,-2.7093,-2.7111,-2.7172,-2.7238,-2.7286,-2.7371,-2.7394,-2.7468,-2.7476,-2.7448,-2.7452,-2.7482,-2.7479,-2.757,-2.7585,-2.7528,-2.7528,-2.7529,0,-2.6639,-2.6684,-2.6767,-2.6804,-2.6843,-2.6902,-2.6944,-2.6991,-2.7033,-2.7109,-2.7143,-2.7212,-2.727,-2.7374,-2.7426,-2.7492,-2.7502,-2.753,-2.7512,-2.75,-2.7503,-2.75,-2.7506,-2.7532,-2.7532,-2.7533,-2.7533,0,-2.6689,-2.6712,-2.6771,-2.684,-2.6889,-2.6945,-2.7001,-2.703,-2.7088,-2.7133,-2.7202,-2.7247,-2.7336,-2.7404,-2.7475,-2.7514,-2.7534,-2.7538,-2.755,-2.7539,-2.7521,-2.7533,-2.7455,-2.7536,-2.7536,-2.7535,-2.7535,-2.7535,-2.6717,-2.6759,-2.6825,-2.689,-2.6938,-2.6991,-2.7036,-2.7082,-2.7141,-2.7217,-2.7242,-2.7313,-2.7377,-2.7475,-2.7515,-2.7572,-2.7571,-2.7586,-2.7591,-2.7594,-2.7594,-2.7512,-2.7585,-2.7585,-2.7585,-2.7585,-2.7585,0,-2.6769,-2.6813,-2.6873,-2.6952,-2.7004,-2.702,-2.7084,-2.7126,-2.7189,-2.7247,-2.7304,-2.7384,-2.7451,-2.7509,-2.7579,-2.7614,-2.7625,-2.763,-2.7628,-2.7637,-2.759,-2.7574,-2.7621,-2.7621,-2.7621,-2.7621,-2.7621,-2.7621,-2.6802,-2.6874,-2.6905,-2.7002,-2.7046,-2.7118,-2.7153,-2.7203,-2.7249,-2.7338,-2.7395,-2.7433,-2.7491,-2.7566,-2.7628,-2.7644,-2.7668,-2.7672,-2.769,-2.7645,-2.764,-2.7636,-2.7621,-2.7677,-2.7677,-2.7732,-2.7732,-2.7733]}]]